TimeCEST,TemperatureF,Dew PointF,Humidity,Sea Level PressureIn,VisibilityMPH,Wind Direction,Wind SpeedMPH,Gust SpeedMPH,PrecipitationIn,Events,Conditions,WindDirDegrees,DateUTC
12:15 AM,71.6,62.6,73,29.98,-9999.0,SE,2.3,-,N/A,,Clear,140,2013-08-22 22:15:00
12:45 AM,71.6,62.6,73,29.98,-9999.0,SSE,2.3,-,N/A,,Clear,150,2013-08-22 22:45:00
1:15 AM,71.6,59.0,64,29.98,-9999.0,SSE,3.5,-,N/A,,Clear,160,2013-08-22 23:15:00
1:45 AM,71.6,59.0,64,29.98,-9999.0,Calm,Calm,-,N/A,,Clear,140,2013-08-22 23:45:00
2:15 AM,69.8,53.6,56,29.98,-9999.0,Calm,Calm,-,N/A,,Clear,0,2013-08-23 00:15:00
2:45 AM,68.0,55.4,64,29.98,-9999.0,Calm,Calm,-,N/A,,Clear,0,2013-08-23 00:45:00
3:15 AM,68.0,57.2,68,29.98,-9999.0,Calm,Calm,-,N/A,,Clear,0,2013-08-23 01:15:00
3:45 AM,68.0,59.0,73,29.95,-9999.0,Calm,Calm,-,N/A,,Clear,0,2013-08-23 01:45:00
4:15 AM,68.0,60.8,78,29.95,-9999.0,ESE,3.5,-,N/A,,Clear,120,2013-08-23 02:15:00
4:45 AM,68.0,57.2,68,29.95,-9999.0,Calm,Calm,-,N/A,,Clear,0,2013-08-23 02:45:00
5:15 AM,68.0,59.0,73,29.95,-9999.0,Calm,Calm,-,N/A,,Clear,0,2013-08-23 03:15:00
5:45 AM,66.2,57.2,73,29.95,-9999.0,Calm,Calm,-,N/A,,Clear,0,2013-08-23 03:45:00
6:15 AM,66.2,60.8,83,29.95,-9999.0,SSE,2.3,-,N/A,,Clear,160,2013-08-23 04:15:00
6:45 AM,66.2,60.8,83,29.95,-9999.0,Calm,Calm,-,N/A,,Clear,0,2013-08-23 04:45:00
7:15 AM,66.2,59.0,78,29.95,-9999.0,Calm,Calm,-,N/A,,Clear,0,2013-08-23 05:15:00
7:45 AM,68.0,60.8,78,29.95,-9999.0,NE,1.2,-,N/A,,Clear,40,2013-08-23 05:45:00
8:15 AM,71.6,60.8,69,29.98,-9999.0,NE,2.3,-,N/A,,Clear,50,2013-08-23 06:15:00
8:45 AM,73.4,62.6,69,29.98,-9999.0,ENE,1.2,-,N/A,,Clear,70,2013-08-23 06:45:00
9:15 AM,77.0,60.8,57,29.98,-9999.0,Calm,Calm,-,N/A,,Clear,0,2013-08-23 07:15:00
9:45 AM,80.6,62.6,54,29.98,-9999.0,NW,1.2,-,N/A,,Clear,310,2013-08-23 07:45:00
10:15 AM,82.4,60.8,48,29.98,-9999.0,WNW,2.3,-,N/A,,Clear,290,2013-08-23 08:15:00
10:45 AM,84.2,62.6,48,29.98,6.2,South,2.3,-,N/A,,Partly Cloudy,180,2013-08-23 08:45:00
11:15 AM,86.0,62.6,45,29.98,6.2,NW,2.3,-,N/A,,Partly Cloudy,310,2013-08-23 09:15:00
11:45 AM,86.0,62.6,45,29.98,6.2,West,3.5,-,N/A,,Partly Cloudy,260,2013-08-23 09:45:00
12:15 PM,86.0,59.0,40,29.98,6.2,WNW,3.5,-,N/A,,Partly Cloudy,290,2013-08-23 10:15:00
12:45 PM,87.8,60.8,40,29.98,6.2,West,5.8,-,N/A,,Partly Cloudy,280,2013-08-23 10:45:00
1:15 PM,87.8,60.8,40,29.98,6.2,West,3.5,-,N/A,,Scattered Clouds,260,2013-08-23 11:15:00
1:45 PM,89.6,62.6,40,29.98,6.2,West,4.6,-,N/A,,Scattered Clouds,270,2013-08-23 11:45:00
2:15 PM,89.6,60.8,38,29.98,6.2,West,10.4,-,N/A,,Scattered Clouds,270,2013-08-23 12:15:00
2:45 PM,87.8,60.8,40,29.98,6.2,West,10.4,-,N/A,,Partly Cloudy,270,2013-08-23 12:45:00
3:15 PM,87.8,60.8,40,29.95,6.2,West,10.4,-,N/A,,Partly Cloudy,280,2013-08-23 13:15:00
3:45 PM,87.8,60.8,40,29.95,6.2,West,11.5,-,N/A,,Partly Cloudy,270,2013-08-23 13:45:00
4:15 PM,87.8,60.8,40,29.95,6.2,West,10.4,-,N/A,,Partly Cloudy,270,2013-08-23 14:15:00
4:45 PM,87.8,59.0,38,29.95,6.2,West,10.4,-,N/A,,Partly Cloudy,270,2013-08-23 14:45:00
5:15 PM,86.0,59.0,40,29.95,6.2,West,9.2,-,N/A,,Partly Cloudy,260,2013-08-23 15:15:00
5:45 PM,86.0,59.0,40,29.95,6.2,West,10.4,-,N/A,,Partly Cloudy,260,2013-08-23 15:45:00
6:15 PM,84.2,59.0,42,29.95,6.2,West,6.9,-,N/A,,Partly Cloudy,260,2013-08-23 16:15:00
6:45 PM,84.2,59.0,42,29.95,6.2,WSW,6.9,-,N/A,,Partly Cloudy,250,2013-08-23 16:45:00
7:15 PM,82.4,59.0,45,29.95,6.2,West,5.8,-,N/A,,Partly Cloudy,260,2013-08-23 17:15:00
7:45 PM,80.6,60.8,51,29.95,6.2,WSW,4.6,-,N/A,,Partly Cloudy,240,2013-08-23 17:45:00
8:15 PM,78.8,64.4,61,29.95,-9999.0,WSW,3.5,-,N/A,,Clear,250,2013-08-23 18:15:00
8:45 PM,77.0,64.4,65,29.95,6.2,WSW,4.6,-,N/A,,Partly Cloudy,240,2013-08-23 18:45:00
9:15 PM,75.2,66.2,73,29.98,6.2,SSW,1.2,-,N/A,,Partly Cloudy,200,2013-08-23 19:15:00
9:45 PM,75.2,66.2,73,29.98,6.2,South,2.3,-,N/A,,Partly Cloudy,180,2013-08-23 19:45:00
10:15 PM,75.2,66.2,73,29.98,-9999.0,South,2.3,-,N/A,,Clear,180,2013-08-23 20:15:00
10:45 PM,75.2,68.0,78,29.98,-9999.0,South,2.3,-,N/A,,Clear,180,2013-08-23 20:45:00
11:15 PM,73.4,66.2,78,29.98,-9999.0,SE,3.5,-,N/A,,Clear,140,2013-08-23 21:15:00
11:45 PM,73.4,66.2,78,29.98,-9999.0,SE,2.3,-,N/A,,Clear,130,2013-08-23 21:45:00